TimeEDT,TemperatureF,Dew PointF,Humidity,Sea Level PressureIn,VisibilityMPH,Wind Direction,Wind SpeedMPH,Gust SpeedMPH,PrecipitationIn,Events,Conditions,WindDirDegrees,DateUTC
12:15 AM,41.9,34.7,76,30.33,10.0,Calm,Calm,-,N/A,,Clear,0,2013-05-05 04:15:00
12:35 AM,40.6,35.8,83,30.33,10.0,Calm,Calm,-,N/A,,Clear,0,2013-05-05 04:35:00
12:55 AM,40.8,36.9,86,30.33,10.0,Calm,Calm,-,N/A,,Clear,0,2013-05-05 04:55:00
1:15 AM,39.6,36.5,89,30.33,10.0,Calm,Calm,-,N/A,,Clear,0,2013-05-05 05:15:00
1:35 AM,38.1,35.6,91,30.32,10.0,Calm,Calm,-,N/A,,Clear,0,2013-05-05 05:35:00
1:55 AM,37.9,35.6,91,30.32,10.0,Calm,Calm,-,N/A,,Clear,0,2013-05-05 05:55:00
2:15 AM,37.4,35.6,93,30.32,10.0,Calm,Calm,-,N/A,,Clear,0,2013-05-05 06:15:00
2:35 AM,36.7,35.1,94,30.32,10.0,Calm,Calm,-,N/A,,Clear,0,2013-05-05 06:35:00
2:55 AM,35.6,34.3,95,30.32,10.0,Calm,Calm,-,N/A,,Clear,0,2013-05-05 06:55:00
3:15 AM,35.4,34.5,97,30.31,10.0,Calm,Calm,-,N/A,,Clear,0,2013-05-05 07:15:00
3:35 AM,34.7,33.8,97,30.32,10.0,Calm,Calm,-,N/A,,Clear,0,2013-05-05 07:35:00
3:55 AM,34.3,33.8,98,30.32,10.0,Calm,Calm,-,N/A,,Clear,0,2013-05-05 07:55:00
4:15 AM,33.8,32.9,96,30.32,7.0,Calm,Calm,-,N/A,,Clear,0,2013-05-05 08:15:00
4:35 AM,33.3,32.9,99,30.32,7.0,Calm,Calm,-,N/A,,Clear,0,2013-05-05 08:35:00
4:55 AM,32.7,32.4,99,30.32,7.0,Calm,Calm,-,N/A,,Clear,0,2013-05-05 08:55:00
5:15 AM,32.7,32.4,99,30.32,7.0,Calm,Calm,-,N/A,,Clear,0,2013-05-05 09:15:00
5:35 AM,32.0,31.8,99,30.32,4.0,Calm,Calm,-,N/A,,Clear,0,2013-05-05 09:35:00
5:55 AM,32.0,31.8,99,30.32,4.0,Calm,Calm,-,N/A,,Clear,0,2013-05-05 09:55:00
6:15 AM,32.0,31.8,99,30.32,5.0,Calm,Calm,-,N/A,,Clear,0,2013-05-05 10:15:00
6:35 AM,32.7,32.4,99,30.32,7.0,Calm,Calm,-,N/A,,Clear,0,2013-05-05 10:35:00
6:55 AM,34.9,34.7,99,30.32,10.0,Calm,Calm,-,N/A,,Clear,0,2013-05-05 10:55:00
7:15 AM,36.7,36.1,98,30.32,10.0,Calm,Calm,-,N/A,,Clear,0,2013-05-05 11:15:00
7:35 AM,38.7,35.6,89,30.32,10.0,Calm,Calm,-,N/A,,Clear,0,2013-05-05 11:35:00
7:55 AM,41.0,35.6,81,30.32,10.0,Calm,Calm,-,N/A,,Clear,0,2013-05-05 11:55:00
8:15 AM,43.3,35.8,75,30.32,10.0,Calm,Calm,-,N/A,,Clear,0,2013-05-05 12:15:00
8:35 AM,46.2,35.6,66,30.32,10.0,Calm,Calm,-,N/A,,Clear,0,2013-05-05 12:35:00
8:55 AM,48.7,36.9,64,30.32,10.0,Calm,Calm,-,N/A,,Clear,0,2013-05-05 12:55:00
9:15 AM,51.1,36.3,57,30.31,10.0,Calm,Calm,-,N/A,,Clear,0,2013-05-05 13:15:00
9:35 AM,53.6,34.9,49,30.30,10.0,East,4.6,-,N/A,,Clear,80,2013-05-05 13:35:00
9:55 AM,55.8,34.3,44,30.29,10.0,Calm,Calm,-,N/A,,Clear,0,2013-05-05 13:55:00
10:15 AM,56.8,34.9,44,30.29,10.0,East,4.6,-,N/A,,Clear,100,2013-05-05 14:15:00
10:35 AM,58.1,35.8,43,30.28,10.0,ENE,4.6,-,N/A,,Clear,60,2013-05-05 14:35:00
10:55 AM,59.5,34.3,39,30.27,10.0,SE,3.5,-,N/A,,Clear,130,2013-05-05 14:55:00
11:15 AM,61.0,34.9,38,30.27,10.0,ENE,6.9,-,N/A,,Clear,60,2013-05-05 15:15:00
11:35 AM,62.6,34.5,35,30.26,10.0,East,6.9,-,N/A,,Clear,80,2013-05-05 15:35:00
11:55 AM,64.4,32.2,30,30.25,10.0,SE,5.8,-,N/A,,Clear,140,2013-05-05 15:55:00
12:35 PM,65.8,31.6,28,30.24,10.0,ENE,8.1,-,N/A,,Clear,70,2013-05-05 16:35:00
12:55 PM,67.3,33.4,29,30.23,10.0,ENE,5.8,-,N/A,,Clear,60,2013-05-05 16:55:00
1:15 PM,68.4,32.5,27,30.22,10.0,SSE,3.5,-,N/A,,Clear,160,2013-05-05 17:15:00
1:35 PM,69.3,33.3,26,30.22,10.0,East,8.1,-,N/A,,Clear,90,2013-05-05 17:35:00
1:55 PM,69.8,32.5,25,30.22,10.0,East,10.4,-,N/A,,Clear,90,2013-05-05 17:55:00
2:15 PM,70.2,32.0,24,30.21,10.0,SE,9.2,-,N/A,,Clear,130,2013-05-05 18:15:00
2:35 PM,70.9,32.2,24,30.21,10.0,ESE,4.6,-,N/A,,Clear,110,2013-05-05 18:35:00
2:55 PM,70.7,29.1,21,30.20,10.0,ESE,8.1,-,N/A,,Clear,110,2013-05-05 18:55:00
3:15 PM,71.6,30.6,22,30.20,10.0,ESE,9.2,-,N/A,,Clear,110,2013-05-05 19:15:00
3:35 PM,71.1,30.9,23,30.20,10.0,ESE,5.8,-,N/A,,Clear,120,2013-05-05 19:35:00
4:15 PM,71.8,29.3,21,30.18,10.0,East,6.9,-,N/A,,Clear,90,2013-05-05 20:15:00
4:35 PM,71.8,26.8,19,30.18,10.0,ESE,8.1,-,N/A,,Clear,110,2013-05-05 20:35:00
4:55 PM,71.8,28.0,20,30.17,10.0,ESE,4.6,-,N/A,,Clear,110,2013-05-05 20:55:00
5:15 PM,72.0,29.3,21,30.17,10.0,East,8.1,-,N/A,,Clear,100,2013-05-05 21:15:00
5:35 PM,72.0,30.0,21,30.17,10.0,East,5.8,-,N/A,,Clear,100,2013-05-05 21:35:00
5:55 PM,71.6,27.9,20,30.17,10.0,East,6.9,-,N/A,,Clear,100,2013-05-05 21:55:00
6:15 PM,70.7,31.1,23,30.17,10.0,SSE,4.6,-,N/A,,Clear,150,2013-05-05 22:15:00
6:55 PM,68.2,29.7,24,30.18,10.0,South,5.8,-,N/A,,Clear,190,2013-05-05 22:55:00
7:15 PM,67.1,29.8,25,30.18,10.0,South,4.6,-,N/A,,Clear,170,2013-05-05 23:15:00
7:35 PM,65.8,30.7,27,30.19,10.0,Calm,Calm,-,N/A,,Clear,0,2013-05-05 23:35:00
7:55 PM,64.4,31.1,29,30.20,10.0,Calm,Calm,-,N/A,,Clear,0,2013-05-05 23:55:00
8:15 PM,61.9,32.2,33,30.21,10.0,Calm,Calm,-,N/A,,Clear,0,2013-05-06 00:15:00
8:35 PM,59.9,34.2,38,30.21,10.0,Calm,Calm,-,N/A,,Clear,0,2013-05-06 00:35:00
8:55 PM,55.9,36.9,49,30.22,10.0,ENE,3.5,-,N/A,,Clear,60,2013-05-06 00:55:00
9:15 PM,52.5,39.0,60,30.23,10.0,East,3.5,-,N/A,,Clear,80,2013-05-06 01:15:00
9:35 PM,54.1,38.5,55,30.23,10.0,Calm,Calm,-,N/A,,Clear,0,2013-05-06 01:35:00
9:55 PM,52.2,39.0,61,30.24,10.0,Calm,Calm,-,N/A,,Clear,0,2013-05-06 01:55:00
10:15 PM,50.5,39.6,66,30.24,10.0,Calm,Calm,-,N/A,,Clear,0,2013-05-06 02:15:00
10:35 PM,48.6,39.6,71,30.24,10.0,Calm,Calm,-,N/A,,Clear,0,2013-05-06 02:35:00
10:55 PM,46.8,40.3,78,30.24,10.0,ENE,3.5,-,N/A,,Clear,70,2013-05-06 02:55:00
11:15 PM,46.0,39.0,76,30.24,10.0,Calm,Calm,-,N/A,,Clear,0,2013-05-06 03:15:00
11:35 PM,45.9,39.6,79,30.24,10.0,ENE,3.5,-,N/A,,Clear,70,2013-05-06 03:35:00
11:55 PM,45.0,39.6,81,30.25,10.0,Calm,Calm,-,N/A,,Clear,0,2013-05-06 03:55:00